Main page
METAR-TAF:

METAR-TAF

Airports :

Oil platform

K13-a, Netherlands

latitude: 53-13-04N, longitude: 3-13-13E, elevation: 31 m

Current weather observation

The report was made 36 minutes ago, at 12:55 UTC
Wind 14 kt from the South
Temperature 12°C
Humidity 94%
Pressure 1022 hPa

METAR: EHJR 151255Z AUTO 18014KT //// // ///////// 12/11 Q1022 RE// W///H10

Time: 14:31 (13:31 UTC)


TAF: missing

Weather observations and forecasts of more than 4000 airports (METAR and TAF reports).

The available stations are represented by yellow and red dots on the map.

Hover mouse over dot to see the name of the station.

Then click to see weather observations and forecasts.

To change the map : click on the green buttons with a black cross to zoom in, on the green button with a dash to zoom out, or on the green arrows for adjacent maps.


METAR-TAF: